• In Uzbekistan
  • List of Countries
  • For 7 days
  • Water Temperature
  • Satellite Maps
  • Weather Map
  • Weather Widgets
  • user-avatar
    Login

    Hourly Weather Fier

    Today, 28 April, Friday

    Time Temperature Precipitation Wind Pressure Humidity
    00:00 +14°C° 0 mm 3 mps 761 mmHg 65%
    01:00 +14°C° 0 mm 4 mps 761 mmHg 66%
    02:00 +14°C° 0 mm 4 mps 760 mmHg 64%
    03:00 +14°C° 0 mm 4 mps 760 mmHg 63%
    04:00 +14°C° 0 mm 4 mps 760 mmHg 62%
    05:00 +17°C° 0 mm 4 mps 760 mmHg 57%
    06:00 +18°C° 0 mm 4 mps 760 mmHg 52%
    07:00 +20°C° 0 mm 4 mps 760 mmHg 46%
    08:00 +22°C° 0 mm 4 mps 760 mmHg 39%
    09:00 +25°C° 0 mm 5 mps 760 mmHg 32%
    10:00 +27°C° 0 mm 5 mps 760 mmHg 25%
    11:00 +28°C° 0 mm 6 mps 760 mmHg 25%
    12:00 +28°C° 0 mm 6 mps 759 mmHg 26%
    13:00 +29°C° 0 mm 7 mps 759 mmHg 26%
    14:00 +28°C° 0 mm 7 mps 759 mmHg 28%
    15:00 +27°C° 0 mm 7 mps 759 mmHg 30%
    16:00 +27°C° 0 mm 7 mps 758 mmHg 32%
    17:00 +23°C° 0 mm 6 mps 758 mmHg 38%
    18:00 +21°C° 0 mm 6 mps 758 mmHg 43%
    19:00 +19°C° 0 mm 5 mps 758 mmHg 49%
    20:00 +19°C° 0 mm 5 mps 759 mmHg 50%
    21:00 +17°C° 0 mm 5 mps 759 mmHg 50%
    22:00 +17°C° 0 mm 5 mps 759 mmHg 50%
    23:00 +17°C° 0 mm 5 mps 759 mmHg 50%

    Tomorrow, 29 April, Saturday

    Time Temperature Precipitation Wind Pressure Humidity
    00:00 +17°C° 0 mm 5 mps 758 mmHg 50%
    01:00 +16°C° 0 mm 5 mps 758 mmHg 50%
    02:00 +17°C° 0 mm 5 mps 758 mmHg 49%
    03:00 +17°C° 0 mm 5 mps 758 mmHg 47%
    04:00 +18°C° 0 mm 4 mps 757 mmHg 46%
    05:00 +19°C° 0 mm 4 mps 757 mmHg 45%
    06:00 +20°C° 0 mm 4 mps 757 mmHg 44%
    07:00 +21°C° 0 mm 4 mps 757 mmHg 43%
    08:00 +22°C° 0 mm 4 mps 757 mmHg 39%
    09:00 +25°C° 0 mm 4 mps 757 mmHg 35%
    10:00 +26°C° 0 mm 4 mps 757 mmHg 31%
    11:00 +26°C° 0.1 mm 4 mps 757 mmHg 33%
    12:00 +26°C° 0.1 mm 5 mps 757 mmHg 36%
    13:00 +26°C° 0.1 mm 5 mps 757 mmHg 38%
    14:00 +25°C° 0 mm 5 mps 756 mmHg 44%
    15:00 +22°C° 0 mm 5 mps 756 mmHg 51%
    16:00 +21°C° 0 mm 5 mps 756 mmHg 57%
    17:00 +19°C° 0 mm 4 mps 756 mmHg 68%
    18:00 +18°C° 0 mm 4 mps 756 mmHg 78%
    19:00 +15°C° 0 mm 4 mps 757 mmHg 88%
    20:00 +15°C° 0 mm 4 mps 757 mmHg 90%
    21:00 +14°C° 0 mm 4 mps 757 mmHg 92%
    22:00 +14°C° 0 mm 3 mps 757 mmHg 93%
    23:00 +13°C° 0 mm 4 mps 757 mmHg 94%

    Day after tomorrow, 30 April, Sunday

    Time Temperature Precipitation Wind Pressure Humidity
    00:00 +13°C° 0 mm 4 mps 757 mmHg 94%
    01:00 +13°C° 0 mm 4 mps 757 mmHg 94%
    02:00 +13°C° 0 mm 4 mps 757 mmHg 94%
    03:00 +12°C° 0 mm 4 mps 757 mmHg 94%
    04:00 +12°C° 0 mm 4 mps 757 mmHg 94%
    05:00 +14°C° 0 mm 4 mps 757 mmHg 88%
    06:00 +15°C° 0 mm 4 mps 757 mmHg 81%
    07:00 +17°C° 0 mm 4 mps 757 mmHg 75%
    08:00 +19°C° 0 mm 4 mps 757 mmHg 67%
    09:00 +21°C° 0 mm 4 mps 757 mmHg 58%
    10:00 +23°C° 0 mm 4 mps 757 mmHg 49%
    11:00 +25°C° 0 mm 5 mps 757 mmHg 48%
    12:00 +25°C° 0 mm 5 mps 756 mmHg 47%
    13:00 +26°C° 0 mm 6 mps 756 mmHg 46%
    14:00 +24°C° 0 mm 6 mps 756 mmHg 50%
    15:00 +23°C° 0 mm 6 mps 756 mmHg 53%
    16:00 +22°C° 0 mm 6 mps 756 mmHg 57%
    17:00 +20°C° 0 mm 5 mps 756 mmHg 65%
    18:00 +17°C° 0 mm 5 mps 756 mmHg 74%
    19:00 +15°C° 0 mm 4 mps 756 mmHg 82%
    20:00 +14°C° 0 mm 4 mps 757 mmHg 84%
    21:00 +14°C° 0 mm 3 mps 757 mmHg 85%
    22:00 +13°C° 0 mm 3 mps 757 mmHg 87%
    23:00 +13°C° 0 mm 3 mps 757 mmHg 88%

    1 May, Monday

    Time Temperature Precipitation Wind Pressure Humidity
    00:00 +13°C° 0 mm 3 mps 757 mmHg 88%
    01:00 +13°C° 0 mm 3 mps 757 mmHg 89%
    02:00 +13°C° 0 mm 3 mps 757 mmHg 89%
    03:00 +12°C° 0 mm 3 mps 757 mmHg 90%
    04:00 +12°C° 0 mm 3 mps 757 mmHg 91%
    05:00 +14°C° 0 mm 3 mps 757 mmHg 83%
    06:00 +17°C° 0 mm 2 mps 757 mmHg 75%
    07:00 +19°C° 0 mm 2 mps 757 mmHg 68%
    08:00 +21°C° 0 mm 2 mps 757 mmHg 62%
    09:00 +24°C° 0 mm 3 mps 758 mmHg 56%
    10:00 +26°C° 0 mm 3 mps 758 mmHg 50%
    11:00 +25°C° 0.3 mm 3 mps 758 mmHg 52%
    12:00 +25°C° 0.3 mm 4 mps 757 mmHg 54%
    13:00 +25°C° 0.3 mm 4 mps 757 mmHg 56%
    14:00 +25°C° 0.2 mm 4 mps 757 mmHg 58%
    15:00 +23°C° 0.2 mm 4 mps 757 mmHg 59%
    16:00 +24°C° 0.2 mm 3 mps 757 mmHg 61%
    17:00 +21°C° 0.1 mm 3 mps 757 mmHg 70%
    18:00 +19°C° 0.1 mm 2 mps 757 mmHg 79%
    19:00 +17°C° 0.1 mm 2 mps 757 mmHg 88%
    20:00 +16°C° 0 mm 1 mps 758 mmHg 88%
    21:00 +16°C° 0 mm 1 mps 758 mmHg 89%
    22:00 +14°C° 0 mm 0 mps 758 mmHg 89%
    23:00 +15°C° 0 mm 1 mps 758 mmHg 89%

    2 May, Tuesday

    Time Temperature Precipitation Wind Pressure Humidity
    00:00 +15°C° 0 mm 1 mps 758 mmHg 89%
    01:00 +14°C° 0 mm 1 mps 758 mmHg 89%
    02:00 +14°C° 0 mm 1 mps 758 mmHg 89%
    03:00 +12°C° 0 mm 0 mps 757 mmHg 90%
    04:00 +12°C° 0 mm 0 mps 757 mmHg 90%
    05:00 +14°C° 0 mm 0 mps 757 mmHg 83%
    06:00 +17°C° 0 mm 0 mps 757 mmHg 76%
    07:00 +19°C° 0 mm 0 mps 757 mmHg 70%
    08:00 +22°C° 0 mm 1 mps 758 mmHg 63%
    09:00 +24°C° 0 mm 1 mps 758 mmHg 56%
    10:00 +25°C° 0 mm 2 mps 758 mmHg 49%
    11:00 +26°C° 0 mm 2 mps 757 mmHg 47%
    12:00 +26°C° 0 mm 3 mps 757 mmHg 45%
    13:00 +26°C° 0 mm 3 mps 757 mmHg 44%
    14:00 +25°C° 0 mm 3 mps 757 mmHg 45%
    15:00 +25°C° 0 mm 3 mps 757 mmHg 46%
    16:00 +24°C° 0 mm 3 mps 757 mmHg 47%
    17:00 +21°C° 0 mm 3 mps 757 mmHg 55%
    18:00 +18°C° 0 mm 2 mps 758 mmHg 63%
    19:00 +16°C° 0 mm 2 mps 758 mmHg 72%
    20:00 +15°C° 0 mm 1 mps 758 mmHg 74%
    21:00 +15°C° 0 mm 1 mps 758 mmHg 76%
    22:00 +14°C° 0 mm 1 mps 758 mmHg 78%
    23:00 +14°C° 0 mm 1 mps 758 mmHg 79%

    3 May, Wednesday

    Time Temperature Precipitation Wind Pressure Humidity
    00:00 +14°C° 0 mm 1 mps 758 mmHg 81%
    01:00 +13°C° 0 mm 1 mps 758 mmHg 83%
    02:00 +13°C° 0 mm 1 mps 758 mmHg 83%
    03:00 +13°C° 0 mm 1 mps 758 mmHg 83%
    04:00 +12°C° 0 mm 1 mps 758 mmHg 83%
    05:00 +15°C° 0 mm 1 mps 758 mmHg 74%
    06:00 +18°C° 0 mm 1 mps 759 mmHg 65%
    07:00 +20°C° 0 mm 1 mps 759 mmHg 56%
    08:00 +22°C° 0 mm 1 mps 759 mmHg 51%
    09:00 +23°C° 0 mm 2 mps 759 mmHg 46%
    10:00 +24°C° 0 mm 3 mps 759 mmHg 41%
    11:00 +25°C° 0 mm 3 mps 759 mmHg 41%
    12:00 +25°C° 0 mm 4 mps 759 mmHg 42%
    13:00 +25°C° 0 mm 4 mps 758 mmHg 42%
    14:00 +25°C° 0 mm 4 mps 758 mmHg 45%
    15:00 +23°C° 0 mm 4 mps 758 mmHg 48%
    16:00 +22°C° 0 mm 4 mps 758 mmHg 52%
    17:00 +20°C° 0 mm 4 mps 758 mmHg 62%
    18:00 +18°C° 0 mm 3 mps 759 mmHg 73%
    19:00 +16°C° 0 mm 3 mps 759 mmHg 83%
    20:00 +15°C° 0 mm 2 mps 759 mmHg 85%
    21:00 +14°C° 0 mm 2 mps 759 mmHg 87%
    22:00 +14°C° 0 mm 1 mps 759 mmHg 88%
    23:00 +13°C° 0 mm 1 mps 759 mmHg 88%
    Show more